Location: Davayat
(45.9471°N, 3.1105°E)
Time: 15:51:16
(UTC+00:00)

CZ-4 R/B - Pass Details

Date: 01 December 2020
Orbit: 533 x 597 km, 97.7° (Epoch: 17 January)

Event Time Altitude Azimuth Distance (km) Brightness Sun altitude
Rises 17:35:14 0° 141° (SE) 2,719 4.6 -15.3°
Enters shadow 17:35:16 - 141° (SE) 2,704 4.6 -15.3°
Exits shadow 17:41:16 31° 61° (ENE) 1,007 2.1 -16.3°
Drops below altitude 10° 17:44:38 10° 6° (N) 1,888 3.8 -16.9°
Sets 17:46:59 0° 356° (N) 2,803 4.8 -17.3°
